TimeMST,TemperatureF,Dew PointF,Humidity,Sea Level PressureIn,VisibilityMPH,Wind Direction,Wind SpeedMPH,Gust SpeedMPH,PrecipitationIn,Events,Conditions,WindDirDegrees,DateUTC
12:53 AM,16.0,12.0,84,30.26,10.0,SE,5.8,-,N/A,,Clear,140,2014-02-12 07:53:00
1:53 AM,16.0,10.9,81,30.25,10.0,ESE,5.8,-,N/A,,Clear,120,2014-02-12 08:53:00
2:53 AM,17.1,10.9,77,30.22,10.0,SSE,4.6,-,N/A,,Clear,160,2014-02-12 09:53:00
3:53 AM,15.1,12.9,91,30.19,10.0,South,3.5,-,N/A,,Clear,170,2014-02-12 10:53:00
4:53 AM,17.1,12.0,81,30.14,10.0,East,4.6,-,N/A,,Clear,100,2014-02-12 11:53:00
5:53 AM,17.1,14.0,88,30.09,10.0,Calm,Calm,-,N/A,,Partly Cloudy,0,2014-02-12 12:53:00
6:53 AM,14.0,10.0,84,30.05,10.0,Calm,Calm,-,N/A,,Clear,0,2014-02-12 13:53:00
7:53 AM,14.0,10.0,84,30.03,10.0,WNW,4.6,-,N/A,,Partly Cloudy,300,2014-02-12 14:53:00
8:53 AM,19.0,14.0,81,29.98,10.0,Calm,Calm,-,N/A,,Overcast,0,2014-02-12 15:53:00
9:53 AM,23.0,16.0,74,29.98,10.0,Calm,Calm,-,N/A,,Overcast,0,2014-02-12 16:53:00
10:53 AM,23.0,17.1,78,29.94,10.0,Calm,Calm,-,N/A,,Overcast,0,2014-02-12 17:53:00
11:53 AM,27.0,19.0,72,29.90,10.0,West,8.1,-,N/A,,Clear,280,2014-02-12 18:53:00
12:53 PM,28.0,19.0,69,29.87,10.0,West,3.5,-,N/A,,Scattered Clouds,280,2014-02-12 19:53:00
1:53 PM,33.1,21.0,61,29.80,10.0,ESE,8.1,24.2,N/A,,Clear,120,2014-02-12 20:53:00
2:53 PM,35.1,23.0,61,29.80,10.0,SSE,3.5,-,N/A,,Clear,150,2014-02-12 21:53:00
3:53 PM,34.0,23.0,64,29.79,10.0,SSE,6.9,-,N/A,,Clear,150,2014-02-12 22:53:00
4:53 PM,35.1,24.1,64,29.78,10.0,Calm,Calm,-,N/A,,Clear,0,2014-02-12 23:53:00
5:53 PM,32.0,23.0,69,29.79,10.0,ESE,6.9,-,N/A,,Clear,110,2014-02-13 00:53:00
6:53 PM,33.1,23.0,66,29.83,10.0,SE,4.6,-,N/A,,Clear,130,2014-02-13 01:53:00
7:53 PM,32.0,21.9,66,29.83,10.0,SE,9.2,-,N/A,,Clear,140,2014-02-13 02:53:00
8:53 PM,28.9,19.9,69,29.85,10.0,ESE,8.1,-,N/A,,Clear,120,2014-02-13 03:53:00
9:53 PM,28.9,19.9,69,29.86,10.0,ESE,8.1,-,N/A,,Clear,110,2014-02-13 04:53:00
10:53 PM,28.9,19.9,69,29.88,10.0,SE,10.4,-,N/A,,Clear,140,2014-02-13 05:53:00
11:53 PM,26.1,19.0,75,29.91,10.0,SSE,10.4,-,N/A,,Clear,150,2014-02-13 06:53:00